[Date Prev][Date Next][Thread Prev][Thread Next][Date Index][Thread Index]

[jamsat-news:1452] jas2info #218



========================   最新情報   ==============================

        Last updated :Wed.28MAR2001  15:25 (JST) #218
        
====================================================================
   
  1)アマチュア通信衛星情報、FOシリーズの軌道要素、テレメトリ、QSOの
   状況等をまとめてみました.
   
   FO−29の2001年3月28日(水)の10:36(JST)のパスでは
  JARLのホームページのとうりアナログ運用でした。今まで観測したテレメトリーと
  分析結果を掲載しておきます.

AS22768C1   28MAR2001
10:36-10:48(JST)
FREQ. 435.801-.789MHz

HI HI AE C7 88 55 00 D4 91 86 09 5B 8E 88 87 60 92 90 B0 79 B0 AC AF AF AD 
HI HI AE C7 88 55 00 D4 91 86 09 5B 8D 86 8A 5F 92 90 B6 7C B0 AC AF AF AD 
HI HI AE C7 88 55 00 D4 91 86 09 5B 8B 86 89 60 92 90 B0 7D B0 AC AF AF AD 
HI HI AE C7 88 55 00 D4 91 86 09 5B 8F 82 8A 60 92 90 B0 7E AF AC AF AF AD 
HI HI AE C7 88 55 00 D4 91 86 09 5B 93 7F 8A 60 92 90 B0 81 AF AC AF AF AD 
HI HI AE C7 88 55 00 D4 91 86 09 5B 96 7D 8B 60 92 90 B0 80 AF AC AF AE AD 
HI HI AE C7 88 55 00 D4 91 86 09 5B 98 7A 8C 60 92 90 B0 77 AF AC AE AE AD 
HI HI AE C7 88 55 00 D4 91 86 09 5B 9A 79 8C 60 92 91 B1 7F AF AC AE AE AD 
HI HI AE C7 88 55 00 D4 91 86 09 5B 9A 78 88 60 92 91 B0 6C AF AC AE AE AG 
HI HI AE C7 88 55 00 D4 91 86 09 5B 99 78 84 60 92 91 B0 89 AF AC AE AE AD 
HI HI AE C7 88 55 00 D4 91 86 09 5B 96 77 81 60 93 91 B0 7D AF AC AE AD AD 
HI HI AE C7 88 55 00 D4 91 86 09 5B 92 78 81 60 93 91 B0 76 AF AC AD AD AD
HI HI AE C7 88 55 00 D4 91 86 09 5B 8C 78 82 60 93 91 B0 6C AF AC AD AD AD 
HI HI AE C7 88 55 00 D4 91 86 09 5B 84 78 83 60 93 91 B0 95 AE AC AD AD AD 
HI HI AE C7 88 55 00 D4 91 85 09 5B 7C 78 83 60 93 91 B0 59 AE AC AD AD AD 
HI HI AE C7 88 55 00 D4 91 86 09 5B 73 77 83 60 93 91 B0 69 AE AC AD AD AD 
HI HI AE C7 88 55 00 D4 91 86 09 5B 69 75 81 60 93 91 B0 69 AE AB AC AC AD 
HI HI AE C7 88 55 00 D4 91 86 09 5B 5E 73 81 60 92 91 B0 79 AE AB AC AC AD 
HI HI AE C7 88 55 00 D4 91 86 09 5B 54 6F 7F 60 93 81 B0 76 AE AB AC AC AD

AS22755C1  27MAR2001
11:37-11:39(JST)
FREQ.435.796MHz
 
HI HI AE C7 88 55 00 D4 B8 C7 09 54 62 86 81 60 92 91 B0 7D B1 AC AE AE AD 

AS22741C1    26MAR2001
10:41-10:54(JST)
Freq.435.802-.789MHz

HI HI AE C7 88 55 00 D4 1A 47 09 56 7D 9D 6D 60 92 90 B0 62 B2 A9 AE B4 AD 
HI HI AE C7 88 55 00 D4 1A 47 09 56 73 A2 70 60 92 90 B0 83 B2 A9 AE B4 AD 
HI HI AE C7 88 55 00 D4 1A 47 09 56 69 A5 6E 60 92 90 B0 81 B2 A8 AE B3 AE 
HI HI AE C7 88 55 00 D4 1A 47 09 56 5E A5 75 60 92 90 B0 72 B1 A8 AE B3 AE 
HI HI AE C7 88 55 00 D4 1A 47 09 56 53 A1 75 60 92 9O B0 71 B1 A8 AE B3 AE 
HI HI AE C7 88 55 00 D4 1A 47 09 56 4A 9B 79 60 92 91 B0 6F B1 A8 AE B3 AD 
HI HI AE C7 88 55 00 D4 1A 47 09 56 41 93 7B 60 92 91 B0 67 B1 A8 AD B3 AD 
HI HI AE C7 88 55 00 D4 1A 47 09 56 3A 88 7A 60 92 90 B0 86 B1 A8 AD B3 AE 
HI HI AE C7 88 55 00 D4 1A 47 09 56 36 7B 78 60 92 91 B0 66 B1 A7 AD B3 AD 
HI HI AE C7 88 55 00 D4 1A 47 09 56 35 6C 77 60 92 91 B0 75 B1 A7 AD B3 AD 
HI HI AE C7 88 55 00 D4 1A 47 09 56 36 5D 75 60 92 91 B0 75 B0 A7 AD B3 AD
HI HI AE C7 88 55 00 D4 1A 47 09 56 3B 4F 74 60 92 91 B0 69 B0 A7 AD B3 AD 
HI HI AE C7 88 55 00 D4 1A 47 09 56 41 42 75 60 93 91 B0 83 B0 A7 AD B2 AD 
HI HI AE C7 88 55 00 D4 1A 47 09 56 4A 36 79 60 92 91 B0 73 B0 A6 AD B2 AD 
HI HI AE C7 88 55 00 D4 1A 47 09 56 55 30 7C 60 93 91 B0 6D B0 A6 AD B2 AD 
HI HI AE C7 88 55 00 D4 1A 47 09 56 60 26 7D 60 93 91 B0 64 B0 A6 AD B2 AD 
 
 ------------------------ FO-29の軌道要素 ------------------------------        
 
  ■ 軌道要素1:「jamsat−keps:1087」より         
          SB KEPS @ AMSAT  $ORB01081.N
          2Line Orbital Elements 01081.AMSAT

HR AMSAT ORBITAL ELEMENTS FOR AMATEUR SATELLITES IN NASA FORMAT
FROM WA5QGD FORT WORTH,TX March 22, 2001
SEND SUBSCRIBE/UNSUBSCRIBE TO majordomo@amsat.org ONLY
BID: ORB01081.N

 DECODE 2-LINE ELSETS WITH THE FOLLOWING KEY:
 1 AAAAAU 00  0  0 BBBBB.BBBBBBBB  .CCCCCCCC  00000-0  00000-0 0  DDDZ
 2 AAAAA EEE.EEEE FFF.FFFF GGGGGGG HHH.HHHH III.IIII JJ.JJJJJJJJKKKKKZ
 KEY: A-CATALOGNUM B-EPOCHTIME C-DECAY D-ELSETNUM E-INCLINATION F-RAAN
 G-ECCENTRICITY H-ARGPERIGEE I-MNANOM J-MNMOTION K-ORBITNUM Z-CHECKSUM

FO-29
1 24278U 96046B   01080.70241205 -.00000005  00000-0  33396-4 0 04324
2 24278 098.5627 317.7430 0350409 228.4367 128.6237 13.52762437226818

 ■ 軌道要素2:「jamsat−keps:1086」より                     

        SB KEPS @ AMSAT  $ORB01081.O
        Orbital Elements  01081.OSCAR

HR AMSAT ORBITAL ELEMENTS FOR OSCAR SATELLITES
FROM WA5QGD FORT WORTH,TX March 22, 2001
SEND SUBSCRIBE/UNSUBSCRIBE TO majordomo@amsat.org ONLY
BID: ORB01081.O
TO ALL RADIO AMATEURS BT
 
Satellite: FO-29
Catalog number: 24278
Epoch time:      01080.70241205
Element set:    0432
Inclination:      098.5627 deg
RA of node:       317.7430 deg
Eccentricity:    0.0350409
Arg of perigee:   228.4367 deg
Mean anomaly:     128.6237 deg
Mean motion:   13.52762437 rev/day
Decay rate:       -5.0e-08 rev/day^2
Epoch rev:           22681
Checksum:              294
  
-------------------  FO-29(JAS-2)のテレメトリに関する情報  ---------------------- 
 
2)上記テレメトリー3月28日(水)のテレメトリ最終行を分析しておきます.

AS22768C1   28MAR2001
10:36-10:48(JST)
FREQ. 435.801-.789MHz  CW

HI HI AE C7 88 55 00 D4 91 86 09 5B 54 6F 7F 60 93 81 B0 76 AE AB AC AC AD

テレメトリ   内 容       換算算値 単 位  
3C	磁気センサーZ軸=	41176.5	[nT]
3D	磁気センサX軸	=	54411.8	[nT]
4A	太陽電池発生電流=	 1245.1	[mA]
4B	B充放電電流	=	 -118.4	[mA]
4C	B端子電圧	=	   15.8	[V]
4D	B中間端子電圧	=	    6.2	[V]
5A	バス電圧	=	   17.3	[V]
5B	JTA送信電力	=	  668.9	[mW]
5C 	構体温度1	=	   14.3	[℃]
5D	構体温度2	=	   15.5	[℃]
6A	構体温度3	=	   15.1	[℃]
6B	構体温度4	=	   15.1	[℃]
6C	Bセル温度	=	   14.7	[℃]
   	
 ===========================  FO-29(ふじ3号)のQSO情報等 ======================
   
 3)[jamsat-bb:

 ===============================================================================
   4)JARL のホームページに運用予定が記載されていましたのでご紹介します.
       ( http://www.jarl.or.jp/Japanese/3_Fuji/new/uy.htm )

        ■ ふじ3号/FOー29/JAS-2 ■  
   
     *** 運用予定について ***

     2月1日 〜 4月2日 アナログ系運用

  *なお,運用予定は都合により変更することがありますので予めご了承願います。

 照会先 : lab@jarl.or.jp

 最新の情報はテレホンサービス(03−3942−1000)をお聞きください。  
 以後の運用につきましては平成13年4月上旬にお知らせ致します。    
    
-----------------------    FO−20(JAS-1b)道要素   -------------------------
  5)
  ■ 軌道要素1 :出典はFO-29「ふじ3号」に同じ.
  
FO-20
1 20480U 90013C   01080.77546562 -.00000017  00000-0  27412-4 0 03148
2 20480 099.0657 165.5180 0540498 147.0092 216.5982 12.83289351520889

 
  ■ 軌道要素2 :出典はFO−29「ふじ3号」に同じ.
               
Satellite: FO-20
Catalog number: 20480
Epoch time:      01080.77546562
Element set:    0314
Inclination:      099.0657 deg
RA of node:       165.5180 deg
Eccentricity:    0.0540498
Arg of perigee:   147.0092 deg
Mean anomaly:     216.5982 deg
Mean motion:   12.83289351 rev/day
Decay rate:       -1.7e-07 rev/day^2
Epoch rev:           52088
Checksum:              308
 
 --------------------------------------------------------------------------------
 
         ■ ふじ2号/FO−20/JAS-1b ■      
            
          「ふじ2号」 現況                                                                                  
             
   JAS-1b(ふじ2号)のCWテレメトリ信号に,1997年10月12日12時(JST)の
 日本上空通過時,3桁の数字が繰り返されるはずが3個の長音の繰り返しとなっているという
 異常が発見されました。この不具合は次の通過時からは回復していましたが13日15時20分の
 通過時に再び観測されました。現在はA0の送信が続いています。衛星のアナログ系中継モード
 動作は異常が無く,正常時のテレメトリ内容からは衛星の動作に異常は認められません。従って,
 直ちに衛星のミッションに影響することは無いと予想されますので,当面はアナログ系中継
 モードを継続します。衛星は既に打ち上げてから7年8ヶ月を経ておりますので,今後は監視を
 強化する予定です。アマチュア各位のレポートをお待ちします。
 -------------------------------------------------------------------------------- 
  1997年10月14日 00時35分 確認のテレメトリ音 151 KB (A0) 
  1997年10月14日 11時10分 確認のテレメトリ音 216 KB (異常キーイング) 

  以上 JARLのホ−ムページの http://www.jarl.or.jp/Japanese/3_Fuji/new/fuji.htm

===================== FO-20 ふじ2号 のテレメトリ観測結果 ====================

   12月22日(金)の12:21(JST)のパスの観測結果では以前観測した
 単一周波数のドップラー効果で周波数がずれていくのみの状態に戻っておりました。
                                         
   =============   JAS-2 (ふじ3号)と現在までの情報   ===========
  
  A.電話によるふじ3号の運用情報
      社団法人日本アマチュア連盟によるサービス
           TEL .   03− 3942 − 1000
  B.アマチュア無線FAXサービス
      JARLによるふじ3号の軌道情報(オービットカレンダー)
         FAX No.  03− 3233 −0055
  C.WWWブラウザで情報を簡単に見れる人のためにJAS−2
     ふじ3号の衛星としての運用されるまでの名前)の概要、打ち上げ
     までの状況、運用中における状況を説明したホームページを紹介し
     ておきます.
     社団法人日本アマチュア無線連盟(JARL)のホームページ

          http://www.jarl.or.jp/Japanese/3_Fuji/jasmenu.htm
 
     宇宙開発事業団(NASDA)ホームページ 
          http://www.nasda.go.jp/
         打上げ衛星 :地球観測プラットフォーム技術衛星(ADEOS) 
                       アマチュア衛星3号(JAS-2)
          http://yyy.tksc.nasda.go.jp/Home/Press/Press-j/jas-2_j.html        

  D.JAMSATによる軌道情報の活用
        JAMSATのホームページまたはjamsat−kepsの軌道要素より
      衛星の軌道情報を得る.
     JAMSATホームページ
               URL    http://www.jamsat.or.jp
       上記ホームページでは各地で行われるアマチュア通信衛星に関する
      ミューティングのお知らせや世界のアマチュア衛星に関する情報が
      満載されています.
 ========================================================================  
     JAMSATのメンバーのご協力によりJH6MME(高山 秀造)が
    執筆・編集を担当しております.ご指摘の意見、疑問やこのようにしたら
    というアイデアがありましたら小さなことでもかまいませんので気軽に下
    記アドレスまでご連絡ください.jamsat−newsからjas2
    infoへの転載をJH4PHW局坂井さんに担当して頂いております.  
                  E-mail : jh6mme@jamsat.or.jp : jh4phw@jamsat.or.jp
 ===============================   END  ===============================